When you browse on this site, cookies collect data to enhance your experience and personalize the content and advertising you see.
Visit our Privacy Policy to learn more. By continuing to use the site, you agree to this use of cookies and data.
  • In Latvia
  • List of Countries
  • For 7 days
  • Water Temperature
  • Satellite Maps
  • Weather Map
  • Weather Widgets
  • user-avatar
    Login

    Hourly Weather Sonnenberg

    Today, 21 February, Thursday

    Time Temperature Precipitation Wind Pressure Humidity
    00:00 +5°C° 0 mm 1 mps 717 mmHg 76%
    01:00 +4°C° 0 mm 1 mps 717 mmHg 76%
    02:00 +4°C° 0 mm 1 mps 717 mmHg 76%
    03:00 +4°C° 0 mm 1 mps 717 mmHg 76%
    04:00 +4°C° 0 mm 1 mps 717 mmHg 76%
    05:00 +4°C° 0 mm 1 mps 717 mmHg 76%
    06:00 +3°C° 0 mm 1 mps 717 mmHg 76%
    07:00 +3°C° 0 mm 1 mps 717 mmHg 76%
    08:00 +5°C° 0 mm 1 mps 717 mmHg 72%
    09:00 +6°C° 0 mm 0 mps 718 mmHg 68%
    10:00 +8°C° 0 mm 0 mps 718 mmHg 63%
    11:00 +9°C° 0 mm 0 mps 718 mmHg 60%
    12:00 +11°C° 0 mm 0 mps 718 mmHg 56%
    13:00 +12°C° 0 mm 0 mps 718 mmHg 53%
    14:00 +12°C° 0 mm 0 mps 718 mmHg 54%
    15:00 +12°C° 0 mm 0 mps 718 mmHg 55%
    16:00 +12°C° 0 mm 0 mps 718 mmHg 56%
    17:00 +11°C° 0 mm 1 mps 718 mmHg 62%
    18:00 +9°C° 0 mm 1 mps 718 mmHg 68%
    19:00 +7°C° 0 mm 1 mps 719 mmHg 74%
    20:00 +7°C° 0 mm 1 mps 719 mmHg 75%
    21:00 +6°C° 0 mm 1 mps 720 mmHg 76%
    22:00 +6°C° 0 mm 1 mps 720 mmHg 76%
    23:00 +5°C° 0 mm 1 mps 720 mmHg 76%

    Tomorrow, 22 February, Friday

    Time Temperature Precipitation Wind Pressure Humidity
    00:00 +5°C° 0 mm 1 mps 720 mmHg 76%
    01:00 +5°C° 0 mm 1 mps 720 mmHg 77%
    02:00 +4°C° 0 mm 1 mps 720 mmHg 77%
    03:00 +4°C° 0 mm 1 mps 720 mmHg 77%
    04:00 +4°C° 0 mm 1 mps 720 mmHg 77%
    05:00 +4°C° 0 mm 1 mps 720 mmHg 77%
    06:00 +4°C° 0 mm 1 mps 720 mmHg 77%
    07:00 +4°C° 0 mm 1 mps 720 mmHg 77%
    08:00 +4°C° 0 mm 0 mps 720 mmHg 73%
    09:00 +6°C° 0 mm 0 mps 721 mmHg 70%
    10:00 +8°C° 0 mm 0 mps 721 mmHg 66%
    11:00 +10°C° 0 mm 1 mps 721 mmHg 64%
    12:00 +11°C° 0 mm 1 mps 720 mmHg 62%
    13:00 +12°C° 0 mm 1 mps 720 mmHg 59%
    14:00 +12°C° 0 mm 2 mps 720 mmHg 63%
    15:00 +12°C° 0 mm 2 mps 720 mmHg 67%
    16:00 +12°C° 0 mm 2 mps 720 mmHg 71%
    17:00 +9°C° 0 mm 2 mps 720 mmHg 77%
    18:00 +8°C° 0 mm 1 mps 720 mmHg 84%
    19:00 +7°C° 0 mm 1 mps 721 mmHg 90%
    20:00 +6°C° 0 mm 1 mps 721 mmHg 91%
    21:00 +6°C° 0 mm 1 mps 721 mmHg 92%
    22:00 +5°C° 0 mm 1 mps 721 mmHg 93%
    23:00 +4°C° 0 mm 2 mps 721 mmHg 93%

    Day after tomorrow, 23 February, Saturday

    Time Temperature Precipitation Wind Pressure Humidity
    00:00 +4°C° 0 mm 2 mps 721 mmHg 92%
    01:00 +3°C° 0 mm 2 mps 720 mmHg 92%
    02:00 +3°C° 0 mm 2 mps 720 mmHg 91%
    03:00 +4°C° 0 mm 1 mps 720 mmHg 91%
    04:00 +4°C° 0 mm 1 mps 720 mmHg 90%
    05:00 +4°C° 0 mm 1 mps 720 mmHg 89%
    06:00 +3°C° 0 mm 1 mps 720 mmHg 89%
    07:00 +3°C° 0 mm 1 mps 720 mmHg 89%
    08:00 +4°C° 0 mm 1 mps 720 mmHg 86%
    09:00 +4°C° 0 mm 2 mps 720 mmHg 82%
    10:00 +5°C° 0 mm 2 mps 720 mmHg 79%
    11:00 +6°C° 0 mm 2 mps 720 mmHg 77%
    12:00 +7°C° 0 mm 2 mps 720 mmHg 75%
    13:00 +8°C° 0 mm 2 mps 720 mmHg 73%
    14:00 +8°C° 0 mm 2 mps 720 mmHg 71%
    15:00 +9°C° 0 mm 2 mps 720 mmHg 69%
    16:00 +9°C° 0 mm 2 mps 720 mmHg 67%
    17:00 +8°C° 0 mm 2 mps 720 mmHg 72%
    18:00 +6°C° 0 mm 2 mps 720 mmHg 76%
    19:00 +4°C° 0 mm 2 mps 720 mmHg 81%
    20:00 +4°C° 0 mm 1 mps 720 mmHg 81%
    21:00 +4°C° 0 mm 1 mps 720 mmHg 81%
    22:00 +3°C° 0 mm 1 mps 720 mmHg 81%
    23:00 +3°C° 0 mm 1 mps 720 mmHg 81%

    24 February, Sunday

    Time Temperature Precipitation Wind Pressure Humidity
    00:00 +2°C° 0 mm 1 mps 720 mmHg 80%
    01:00 +2°C° 0 mm 1 mps 720 mmHg 80%
    02:00 +2°C° 0 mm 1 mps 720 mmHg 79%
    03:00 +1°C° 0 mm 1 mps 720 mmHg 79%
    04:00 +1°C° 0 mm 1 mps 720 mmHg 79%
    05:00 +1°C° 0 mm 1 mps 720 mmHg 78%
    06:00 +1°C° 0 mm 1 mps 720 mmHg 77%
    07:00 +1°C° 0 mm 1 mps 720 mmHg 76%
    08:00 +3°C° 0 mm 1 mps 720 mmHg 70%
    09:00 +5°C° 0 mm 1 mps 720 mmHg 64%
    10:00 +6°C° 0 mm 1 mps 721 mmHg 58%
    11:00 +8°C° 0 mm 1 mps 721 mmHg 55%
    12:00 +9°C° 0 mm 1 mps 721 mmHg 52%
    13:00 +11°C° 0 mm 1 mps 721 mmHg 49%
    14:00 +11°C° 0 mm 1 mps 721 mmHg 49%
    15:00 +11°C° 0 mm 1 mps 721 mmHg 50%
    16:00 +11°C° 0 mm 1 mps 721 mmHg 51%
    17:00 +9°C° 0 mm 1 mps 721 mmHg 58%
    18:00 +7°C° 0 mm 1 mps 721 mmHg 64%
    19:00 +6°C° 0 mm 1 mps 721 mmHg 70%
    20:00 +5°C° 0 mm 1 mps 721 mmHg 71%
    21:00 +4°C° 0 mm 1 mps 721 mmHg 73%
    22:00 +4°C° 0 mm 1 mps 722 mmHg 74%
    23:00 +4°C° 0 mm 1 mps 721 mmHg 75%

    25 February, Monday

    Time Temperature Precipitation Wind Pressure Humidity
    00:00 +3°C° 0 mm 1 mps 721 mmHg 76%
    01:00 +3°C° 0 mm 1 mps 721 mmHg 76%
    02:00 +3°C° 0 mm 1 mps 721 mmHg 77%
    03:00 +2°C° 0 mm 1 mps 721 mmHg 77%
    04:00 +2°C° 0 mm 1 mps 721 mmHg 78%
    05:00 +2°C° 0 mm 1 mps 721 mmHg 78%
    06:00 +2°C° 0 mm 1 mps 721 mmHg 79%
    07:00 +2°C° 0 mm 1 mps 721 mmHg 80%
    08:00 +4°C° 0 mm 1 mps 721 mmHg 74%
    09:00 +5°C° 0 mm 1 mps 721 mmHg 68%
    10:00 +7°C° 0 mm 1 mps 721 mmHg 62%
    11:00 +8°C° 0 mm 2 mps 721 mmHg 59%
    12:00 +10°C° 0 mm 2 mps 721 mmHg 56%
    13:00 +11°C° 0 mm 3 mps 721 mmHg 52%
    14:00 +11°C° 0 mm 3 mps 721 mmHg 54%
    15:00 +12°C° 0 mm 3 mps 720 mmHg 55%
    16:00 +12°C° 0 mm 3 mps 720 mmHg 56%
    17:00 +10°C° 0 mm 3 mps 720 mmHg 63%
    18:00 +8°C° 0 mm 3 mps 720 mmHg 70%
    19:00 +6°C° 0 mm 2 mps 720 mmHg 78%
    20:00 +5°C° 0 mm 2 mps 720 mmHg 79%
    21:00 +5°C° 0 mm 2 mps 720 mmHg 80%
    22:00 +4°C° 0 mm 2 mps 720 mmHg 81%
    23:00 +4°C° 0 mm 1 mps 720 mmHg 81%

    26 February, Tuesday

    Time Temperature Precipitation Wind Pressure Humidity
    00:00 +4°C° 0 mm 1 mps 720 mmHg 82%
    01:00 +4°C° 0 mm 1 mps 720 mmHg 82%
    02:00 +3°C° 0 mm 1 mps 720 mmHg 82%
    03:00 +3°C° 0 mm 1 mps 720 mmHg 82%
    04:00 +2°C° 0 mm 1 mps 720 mmHg 82%
    05:00 +2°C° 0 mm 1 mps 720 mmHg 81%
    06:00 +2°C° 0 mm 1 mps 720 mmHg 79%
    07:00 +1°C° 0 mm 0 mps 720 mmHg 78%
    08:00 +4°C° 0 mm 0 mps 720 mmHg 70%
    09:00 +6°C° 0 mm 0 mps 720 mmHg 61%
    10:00 +8°C° 0 mm 0 mps 721 mmHg 53%
    11:00 +10°C° 0 mm 0 mps 721 mmHg 51%
    12:00 +13°C° 0 mm 1 mps 721 mmHg 48%
    13:00 +15°C° 0 mm 1 mps 721 mmHg 46%
    14:00 +15°C° 0 mm 1 mps 720 mmHg 46%
    15:00 +15°C° 0 mm 1 mps 720 mmHg 46%
    16:00 +14°C° 0 mm 0 mps 720 mmHg 47%
    17:00 +12°C° 0 mm 0 mps 719 mmHg 54%
    18:00 +11°C° 0 mm 1 mps 719 mmHg 61%
    19:00 +9°C° 0 mm 1 mps 719 mmHg 68%
    20:00 +8°C° 0 mm 1 mps 719 mmHg 69%
    21:00 +8°C° 0 mm 1 mps 719 mmHg 69%
    22:00 +7°C° 0 mm 1 mps 719 mmHg 70%
    23:00 +7°C° 0 mm 1 mps 718 mmHg 69%
    Show more